Hanamaulu, HI

7:33 AM HST on July 29, 2016 (GMT -1000)
Lihue

Weather History for PHLI - April, 2013

Change the Weather History Date:

Monday, April 1, 2013

  Actual Average Record
Temperature  
Mean Temperature 67 °F 74 °F  
Max Temperature 75 °F 79 °F 83 °F (1963)
Min Temperature 58 °F 68 °F 58 °F (2013)
Degree Days  
Heating Degree Days 0 0  
Month to date heating degree days 0 0  
Since 1 July heating degree days 0 0  
Cooling Degree Days 2 8  
Month to date cooling degree days 2 8  
Year to date cooling degree days 542 642  
Growing Degree Days 16 (Base 50)    
Moisture  
Dew Point 54 °F    
Average Humidity 70    
Maximum Humidity 86    
Minimum Humidity 53    
Precipitation  
Precipitation 0.00 in 0.10 in 0.90 in (1965)
Month to date precipitation 0.00 0.10  
Year to date precipitation 11.17 11.62  
Snow  
Snow 0.00 in - - ()
Month to date snowfall 0.0  
Since 1 July snowfall 0.0  
Snow Depth 0.00 in    
Sea Level Pressure  
Sea Level Pressure 30.00 in    
Wind  
Wind Speed 6 mph (WNW)    
Max Wind Speed 22 mph    
Max Gust Speed 26 mph    
Visibility 10 miles    
Events      
T = Trace of Precipitation, MM = Missing Value Source: NWS Daily Summary

Daily Weather History Graph

Daily Weather History Graph

Search for Another Location

Airport or City:

Trip Planner

Search our weather history database for the weather conditions in past years. The results will help you decide how hot, cold, wet, or windy it might be!

Date:

Astronomy

Apr. 01, 2013 Rise Set
Actual Time 6:29 AM HST 6:52 PM HST
Civil Twilight 6:07 AM HST 7:15 PM HST
Nautical Twilight 5:41 AM HST 7:41 PM HST
Astronomical Twilight 5:14 AM HST 8:07 PM HST
Moon No Moon Rise 10:58 AM HST (4/1)
Length of Visible Light 13h 07m
Length of Day
12h 22m
Waning Gibbous, 64% of the Moon is Illuminated
Apr 1
Waning Gibbous
Apr 2
Last Quarter
Apr 9
New
Apr 18
First Quarter
Apr 25
Full

Hourly Weather History & Observations

Time (HST) Temp. Dew Point Humidity Pressure Visibility Wind Dir Wind Speed Gust Speed Precip Events Conditions
12:53 AM 63.0 °F 54.0 °F 72% 30.01 in 10.0 mi Calm Calm - N/A   Overcast
1:53 AM 62.1 °F 54.0 °F 75% 30.00 in 10.0 mi West 6.9 mph - N/A   Overcast
2:08 AM 60.8 °F 53.6 °F 77% 30.01 in 10.0 mi West 6.9 mph - N/A   Overcast
2:53 AM 59.0 °F 53.1 °F 81% 30.00 in 10.0 mi West 5.8 mph - N/A   Overcast
3:53 AM 57.9 °F 53.1 °F 84% 29.99 in 10.0 mi WSW 6.9 mph - N/A   Overcast
4:53 AM 61.0 °F 55.0 °F 81% 30.00 in 10.0 mi NNW 4.6 mph - N/A   Overcast
5:53 AM 61.0 °F 55.0 °F 81% 30.00 in 10.0 mi West 5.8 mph - N/A   Overcast
6:53 AM 60.1 °F 55.9 °F 86% 30.02 in 10.0 mi Calm Calm - N/A   Overcast
7:53 AM 64.0 °F 57.0 °F 78% 30.03 in 10.0 mi Calm Calm - N/A   Overcast
8:53 AM 66.9 °F 57.0 °F 70% 30.03 in 10.0 mi WSW 9.2 mph - N/A   Mostly Cloudy
9:53 AM 69.1 °F 53.1 °F 57% 30.03 in 10.0 mi NW 6.9 mph - N/A   Mostly Cloudy
10:53 AM 69.1 °F 55.0 °F 61% 30.04 in 10.0 mi NNW 9.2 mph - N/A   Overcast
11:53 AM 72.0 °F 55.0 °F 55% 30.01 in 10.0 mi NW 6.9 mph - N/A   Mostly Cloudy
12:53 PM 71.1 °F 55.9 °F 59% 29.99 in 10.0 mi South 5.8 mph - N/A   Overcast
1:53 PM 73.9 °F 55.9 °F 53% 29.97 in 10.0 mi SSE 12.7 mph - N/A   Overcast
2:53 PM 73.0 °F 55.9 °F 55% 29.95 in 10.0 mi SSE 11.5 mph - N/A   Overcast
3:42 PM 68.0 °F 53.6 °F 60% 29.96 in 10.0 mi NNW 12.7 mph 26.5 mph N/A   Overcast
3:53 PM 69.1 °F 54.0 °F 58% 29.96 in 10.0 mi NNW 15.0 mph 24.2 mph N/A   Overcast
4:53 PM 70.0 °F 48.9 °F 47% 29.95 in 10.0 mi NW 13.8 mph - N/A   Mostly Cloudy
5:53 PM 71.1 °F 52.0 °F 51% 29.97 in 10.0 mi NNW 10.4 mph - N/A   Mostly Cloudy
6:53 PM 66.9 °F 53.1 °F 61% 29.99 in 10.0 mi North 13.8 mph - N/A   Mostly Cloudy
7:53 PM 66.9 °F 54.0 °F 63% 30.01 in 10.0 mi North 9.2 mph - N/A   Overcast
8:53 PM 66.0 °F 53.1 °F 63% 30.03 in 10.0 mi NNW 11.5 mph - N/A   Mostly Cloudy
9:53 PM 66.0 °F 53.1 °F 63% 30.04 in 10.0 mi WNW 4.6 mph - N/A   Mostly Cloudy
10:53 PM 66.0 °F 55.0 °F 68% 30.05 in 10.0 mi NW 3.5 mph - N/A   Overcast
11:53 PM 66.0 °F 55.0 °F 68% 30.04 in 10.0 mi WNW 5.8 mph - N/A   Overcast